Lapse_Rate
6.2 6.2 6.3 6.4 6.4 6.4 6.4 6.4 6.3 6.2 6.1 6.0 6.0 6.1 6.3 6.4 6.7 6.8 7.0 7.3 7.5 7.7 7.8 7.8 7.9 7.9 7.9 8.0 7.9 7.7 7.7 7.7 7.6 7.8 8.2 8.5 8.9 8.7 8.3 8.9 8.5 8.3 7.9 7.2 7.0
6.3 6.3 6.4 6.5 6.6 6.6 6.6 6.6 6.5 6.4 6.2 6.1 6.1 6.2 6.3 6.5 6.7 6.6 6.8 7.1 7.4 7.5 7.6 7.7 7.8 7.8 7.8 8.1 7.9 7.9 7.9 7.8 7.8 7.8 8.2 8.0 8.4 8.6 8.4 8.4 8.7 8.3 7.4 7.3 7.3
6.4 6.5 6.5 6.5 6.5 6.6 6.6 6.6 6.5 6.4 6.3 6.1 6.1 6.2 6.4 6.6 6.5 6.6 6.7 7.0 7.3 7.5 7.6 7.6 7.6 7.8 7.8 7.9 8.0 8.0 7.9 8.4 8.2 7.9 8.2 8.1 8.1 8.2 7.7 8.4 8.5 8.7 8.8 8.5 8.2
6.5 6.5 6.5 6.5 6.4 6.4 6.4 6.4 6.4 6.4 6.3 6.2 6.2 6.2 6.3 6.5 6.3 6.3 6.8 7.3 7.5 7.7 7.9 7.8 7.6 7.6 7.8 8.0 8.1 8.1 8.1 8.2 8.2 8.4 7.9 8.2 8.2 8.5 7.5 8.1 8.7 8.6 8.6 8.6 8.6
6.5 6.5 6.4 6.4 6.3 6.2 6.2 6.3 6.3 6.3 6.2 6.2 6.2 6.2 6.2 6.1 6.1 6.7 7.3 7.6 7.8 7.8 7.8 7.7 7.7 7.7 8.0 8.2 8.1 8.1 8.5 8.6 8.4 8.3 8.2 8.4 8.0 9.0 8.3 8.6 8.8 8.6 8.2 8.5 8.6
6.5 6.5 6.4 6.2 6.1 6.0 6.0 6.0 6.2 6.2 6.2 6.2 6.1 6.0 6.0 6.3 6.3 6.7 7.0 7.5 7.6 7.7 7.7 7.6 8.0 8.2 8.3 8.5 8.4 8.6 8.6 8.6 9.0 8.5 8.6 8.6 8.4 8.3 8.5 8.9 8.5 8.8 8.7 8.1 8.3
6.5 6.4 6.3 6.2 6.0 5.9 5.9 6.0 6.1 6.1 6.1 6.0 6.0 5.9 6.0 6.3 6.5 6.6 6.9 7.4 7.7 7.6 7.6 7.7 8.1 8.1 8.3 8.6 8.5 8.7 8.9 9.3 8.8 8.5 9.0 8.8 8.5 8.6 8.9 7.8 9.0 8.5 8.5 8.6 8.2
6.6 6.5 6.4 6.2 6.1 5.9 5.9 5.9 6.0 6.0 6.0 6.0 5.9 5.9 5.9 6.2 6.5 6.7 7.2 7.4 7.4 7.3 7.4 7.4 7.5 7.9 8.1 8.1 8.4 8.4 8.3 8.4 8.6 8.6 8.8 9.3 8.5 9.2 8.7 8.6 8.3 8.6 8.7 8.5 8.0
6.6 6.5 6.4 6.2 6.1 5.8 5.8 5.8 5.8 5.8 5.8 5.9 6.0 6.0 6.2 6.4 6.5 7.0 7.3 7.3 7.3 7.2 7.2 7.5 7.6 7.8 7.8 8.0 8.3 8.2 8.2 8.6 8.9 9.5 9.4 9.2 8.5 9.1 8.7 8.7 9.0 8.9 9.0 8.3 8.7
6.5 6.5 6.4 6.2 5.9 5.7 5.5 5.5 5.5 5.6 5.7 5.9 6.1 6.3 6.3 6.5 6.6 6.9 7.1 7.3 7.2 7.3 7.3 7.6 8.0 8.3 8.3 8.3 8.3 8.8 8.9 9.1 9.2 9.0 9.6 9.0 8.5 8.7 8.4 8.3 8.7 8.6 8.4 8.2 8.1
6.5 6.5 6.5 6.3 6.0 5.8 5.7 5.7 5.7 5.7 5.9 6.0 6.2 6.3 6.4 6.5 6.8 7.0 7.2 7.2 7.4 7.5 7.8 7.8 7.9 8.2 8.5 8.6 8.6 8.8 8.9 9.2 9.0 8.6 9.2 9.1 8.3 8.1 8.5 8.4 8.5 8.4 8.3 7.9 7.4
6.5 6.5 6.5 6.4 6.3 6.0 5.9 5.9 5.6 5.6 6.4 6.3 6.4 6.7 6.7 6.7 6.8 7.2 7.2 7.3 7.4 7.7 7.9 8.1 8.4 8.6 8.5 8.6 8.7 9.1 8.9 9.0 9.2 9.4 8.8 8.3 8.7 8.8 8.7 8.8 8.8 8.5 7.8 7.6 7.5
6.6 6.6 6.5 6.4 6.4 6.1 5.9 5.8 5.9 6.0 6.3 6.6 6.7 6.6 6.8 7.0 7.1 7.1 7.3 7.5 7.6 7.6 7.9 8.0 8.6 8.8 8.6 8.8 8.9 8.4 8.9 8.8 8.9 8.6 8.8 9.0 9.2 8.9 8.9 8.9 8.8 8.7 8.3 8.2 7.9
6.6 6.7 6.6 6.5 6.3 6.1 6.0 6.1 6.3 6.5 6.3 7.0 7.1 6.8 7.1 7.2 7.2 7.4 7.6 7.5 7.6 7.7 8.1 8.2 8.4 8.6 8.9 9.0 9.2 9.2 8.7 8.6 8.7 8.8 8.8 8.7 8.3 8.8 9.1 8.8 8.6 8.6 8.4 8.5 8.5
6.7 6.7 6.7 6.7 6.4 6.1 6.1 6.5 6.6 6.3 5.9 7.4 7.3 7.3 7.2 7.3 7.5 7.5 7.5 7.7 7.7 8.1 8.2 8.2 8.4 8.5 8.6 8.6 8.7 8.6 8.5 8.4 8.3 8.6 8.5 8.8 8.7 8.0 8.5 8.2 8.0 8.1 8.2 8.0 7.8
6.7 6.7 6.7 6.8 6.4 6.4 6.6 6.9 6.8 6.5 6.6 7.3 7.5 7.4 7.6 7.5 7.6 7.7 7.5 7.6 7.7 8.1 8.2 8.2 8.3 8.7 8.8 8.6 8.6 8.5 8.4 8.5 8.6 8.6 7.8 8.1 8.2 6.9 8.0 8.1 8.2 8.1 8.2 8.0 7.7
6.8 7.0 7.0 6.8 6.5 6.6 6.8 7.1 6.9 6.9 7.5 8.0 8.0 8.2 7.9 7.5 7.3 7.9 7.5 7.8 7.8 7.9 8.2 8.4 8.5 8.5 8.7 8.6 8.4 8.3 8.3 8.0 7.5 7.0 7.3 8.4 7.7 7.2 7.6 7.7 7.8 7.9 7.7 7.4 7.0
6.9 7.1 7.2 7.1 6.9 6.7 7.0 7.1 7.1 7.5 7.7 7.9 8.1 8.3 8.6 8.3 8.1 8.2 7.5 7.9 7.8 7.9 8.0 8.0 8.2 7.9 8.3 8.3 8.3 8.1 8.2 7.7 7.1 6.6 7.8 8.5 7.9 7.7 7.5 7.7 7.6 7.6 7.4 7.1 7.0
6.9 7.2 7.4 7.1 6.9 7.2 7.1 7.2 7.4 7.6 7.7 8.1 8.6 8.6 8.5 8.6 8.4 8.4 7.5 7.2 7.4 7.9 7.9 8.1 8.3 8.0 8.2 8.4 8.4 8.2 7.9 8.2 8.2 8.0 8.0 8.1 8.2 8.1 8.0 8.0 7.6 7.4 7.4 7.2 7.1
7.0 7.2 7.3 6.9 7.1 6.9 7.1 7.6 7.3 7.6 7.9 8.2 8.4 8.3 8.1 8.0 8.0 8.1 7.5 6.8 7.5 7.8 7.6 7.7 8.1 7.9 8.0 8.2 8.3 8.0 8.0 8.1 7.9 6.8 7.4 7.7 7.9 7.5 7.6 7.4 7.5 7.5 7.5 7.4 7.4
6.8 6.8 6.8 6.8 7.0 6.8 7.4 7.5 7.3 7.2 7.7 8.2 8.1 8.0 8.0 8.0 8.1 8.1 7.5 7.2 7.4 7.3 7.4 7.4 7.6 8.3 8.0 7.9 7.9 8.1 8.0 7.9 7.8 7.5 6.0 6.0 7.2 6.5 7.2 7.3 7.4 7.4 7.7 7.8 7.6
6.7 6.7 6.7 6.8 7.0 7.2 7.4 7.5 7.1 7.1 7.7 8.0 7.8 7.7 7.6 7.8 8.0 7.8 7.4 7.3 7.4 7.5 7.5 7.5 7.4 7.5 8.1 7.8 7.8 7.8 7.5 7.5 7.6 7.4 7.7 7.6 6.2 5.7 6.5 7.0 7.3 7.4 7.3 7.3 7.3
6.7 6.7 6.7 6.8 6.9 7.0 7.2 7.6 7.5 7.3 7.3 7.5 7.6 7.4 7.5 7.5 7.8 7.4 7.4 7.4 7.4 7.4 7.5 7.3 7.0 7.1 7.9 7.8 7.8 7.5 7.6 7.7 7.7 7.7 7.8 7.1 6.9 7.0 6.0 6.5 6.6 6.6 6.6 6.6 6.6
6.6 6.6 6.8 6.9 6.9 7.1 7.4 7.3 7.7 7.6 7.5 7.4 7.3 7.3 7.4 7.4 7.4 7.4 7.2 7.2 7.2 7.2 7.3 7.2 7.1 7.0 7.0 6.8 6.8 7.0 7.3 7.6 7.6 7.6 7.8 7.7 7.2 7.2 7.4 7.2 6.7 6.6 6.6 6.6 6.5
6.4 6.7 6.5 6.8 7.2 7.4 7.7 7.5 7.7 7.4 7.4 7.2 7.1 7.2 7.2 7.4 7.4 7.4 7.1 7.0 6.8 6.6 6.8 7.1 6.8 6.7 6.7 6.7 6.9 7.0 7.3 7.5 7.5 7.6 7.6 7.3 7.1 7.4 7.4 7.4 7.1 6.9 6.9 6.8 6.7
6.2 6.5 6.7 6.9 7.2 7.2 7.8 7.2 7.2 7.3 7.5 7.5 7.4 7.2 7.1 7.3 7.5 7.4 7.0 6.7 6.9 6.6 6.6 6.6 6.8 6.8 7.1 6.9 6.7 7.0 7.1 7.1 6.8 6.8 6.9 6.7 6.9 7.0 6.9 6.5 6.3 6.5 6.2 6.2 6.4
6.3 6.7 7.0 6.9 7.1 7.1 7.3 7.1 7.4 7.3 7.4 7.4 7.4 7.4 7.2 7.0 6.9 7.0 7.0 7.0 6.9 6.7 6.5 6.5 6.4 6.3 6.6 6.8 7.0 6.9 6.5 6.6 6.7 6.9 7.0 6.9 6.9 6.9 6.5 6.7 6.6 6.1 5.9 5.8 5.8
Wind_Speed
12 12 12 11 10 10 10 10 9 9 9 10 10 10 10 12 16 2 5 11 7 13 7 7 4 5 1 3 3 2 3 2 3 1 7 9 8 5 6 14 3 2 6 2 7
13 12 12 11 10 10 10 9 9 9 8 8 9 9 9 10 2 6 12 15 16 5 1 3 6 8 4 3 3 4 4 8 7 3 6 1 6 6 7 10 9 6 5 6 7
14 13 12 11 11 10 9 9 8 8 7 7 8 9 8 7 3 6 6 23 14 2 2 2 2 1 3 1 3 3 5 4 10 5 8 4 5 4 4 6 2 1 4 4 6
15 14 13 13 12 11 10 9 8 7 6 6 7 8 7 1 1 4 4 8 5 2 2 2 3 1 3 3 4 3 7 5 8 12 5 6 4 7 2 4 5 1 2 3 8
16 15 14 13 12 12 10 9 8 7 7 6 6 6 2 2 7 4 7 5 4 3 4 3 1 4 3 3 3 6 6 7 11 7 8 7 9 15 7 6 6 3 4 2 4
19 17 15 14 13 12 11 10 8 7 6 6 5 5 0 2 5 10 9 5 4 4 3 6 8 4 6 5 5 4 6 11 13 14 5 7 6 7 23 2 7 9 8 5 2
20 18 17 15 14 13 12 10 7 5 4 4 3 2 2 10 3 11 8 7 6 6 3 5 5 6 3 7 2 3 4 5 5 7 7 7 2 7 10 4 11 8 7 8 1
22 20 18 16 15 15 14 13 9 7 6 4 1 1 6 6 7 6 6 6 6 8 7 9 7 5 4 2 7 5 4 1 4 3 5 7 12 7 9 6 9 9 7 5 11
24 22 20 18 17 16 16 16 10 5 5 6 1 1 9 12 3 7 6 3 5 5 6 2 4 0 5 4 5 6 3 5 7 6 6 8 9 9 6 7 8 8 6 13 12
26 24 21 19 18 19 25 10 6 1 3 5 4 4 5 4 3 2 2 1 1 3 5 3 5 4 5 5 3 5 4 4 5 8 5 8 7 6 2 5 8 7 10 11 13
28 26 23 19 17 17 9 4 4 3 1 7 6 5 6 3 1 1 4 2 4 5 1 4 3 5 10 7 6 5 6 5 13 7 6 1 4 4 3 5 7 5 12 11 13
28 27 26 23 18 12 1 1 6 4 8 8 14 9 10 5 1 5 6 2 3 5 1 5 6 13 8 8 7 9 11 9 7 7 7 5 2 3 6 4 6 12 11 13 8
29 26 25 26 26 2 2 6 7 6 2 9 6 4 6 4 3 6 6 3 6 5 7 8 14 5 9 7 6 2 5 1 4 5 7 5 8 7 5 0 6 15 11 10 13
30 27 23 32 2 4 5 5 11 6 4 6 3 6 4 4 2 2 3 3 4 4 4 4 5 3 7 6 4 4 3 2 4 5 1 4 4 7 6 5 13 13 12 9 8
32 26 21 9 3 2 7 12 8 4 2 4 4 3 2 6 5 4 3 1 2 5 6 5 5 6 8 3 3 4 4 1 1 4 3 1 4 12 3 8 10 9 9 9 7
34 25 17 4 1 7 13 9 4 4 3 2 6 5 2 2 4 5 2 6 3 5 6 2 1 4 2 4 4 2 2 6 5 4 4 7 5 11 7 8 17 17 16 15 16
36 26 5 3 4 5 7 4 5 3 4 3 5 5 6 3 4 4 6 6 3 5 6 6 3 2 5 6 7 11 7 4 4 4 4 2 11 0 7 17 15 15 13 11 9
40 30 9 5 12 7 4 5 1 4 4 5 2 2 4 6 1 3 3 4 7 5 3 5 5 6 5 3 1 3 6 5 2 1 4 6 4 1 4 9 10 9 9 13 15
31 4 2 5 11 4 5 3 5 4 3 6 7 5 5 2 5 5 5 3 4 5 5 4 3 5 2 2 4 4 3 2 5 4 4 2 3 12 4 16 20 18 18 15 14
4 4 4 5 9 5 4 4 4 2 4 5 5 5 5 6 5 4 3 6 3 5 2 2 3 3 6 5 5 5 2 6 4 2 2 3 5 3 5 13 16 15 13 12 11
3 4 4 11 5 5 3 6 4 2 4 4 3 4 3 3 3 4 4 3 5 3 8 2 3 7 4 5 3 5 3 6 4 4 4 2 3 8 11 11 12 11 10 8 7
4 3 2 4 3 1 3 5 4 3 4 3 4 5 3 6 4 4 3 2 2 2 3 2 4 2 3 8 2 3 5 4 5 2 2 4 0 6 9 11 11 10 9 8 6
3 3 4 5 1 3 5 4 2 4 4 3 5 4 3 3 4 6 4 2 4 3 3 1 3 3 9 7 7 5 6 3 4 3 5 6 4 4 4 8 8 10 9 8 9
2 4 4 4 1 1 3 3 2 4 4 5 3 5 6 6 6 4 3 2 3 4 6 6 3 5 5 4 4 5 8 6 5 4 3 4 5 6 7 6 6 9 7 6 6
2 2 2 4 5 5 2 3 3 3 3 8 7 7 4 4 4 4 6 4 5 3 3 4 2 2 1 3 4 3 8 10 4 1 5 4 5 1 4 7 8 9 9 11 14
2 3 4 4 6 6 4 6 4 3 4 3 7 9 10 5 3 2 1 2 1 3 2 3 1 3 4 4 6 2 8 5 7 5 10 10 5 2 2 5 7 6 9 13 14
3 3 3 5 7 1 2 3 2 3 7 6 5 5 6 1 1 4 3 3 4 5 2 3 3 3 3 5 5 5 7 6 5 7 3 3 1 2 3 8 11 4 9 13 13
Wind_Direction
340 333 331 327 323 319 317 316 314 314 314 317 318 316 312 319 313 172 251 221 194 278 289 303 316 307 50 246 187 73 59 181 176 21 271 329 14 346 337 33 325 210 116 136 116
338 333 328 324 321 318 315 316 314 315 317 317 313 309 312 328 307 262 243 234 244 282 214 336 330 7 321 265 333 111 135 222 184 203 275 258 5 334 33 25 353 9 28 54 106
341 334 329 325 322 319 316 315 314 316 320 319 309 308 316 331 317 252 259 222 230 252 308 312 306 348 268 49 235 216 212 189 332 249 260 288 310 35 50 35 23 41 17 26 107
344 339 334 330 325 322 320 320 321 322 322 312 302 307 314 238 228 263 118 158 198 213 296 327 28 173 247 249 217 222 261 199 202 257 189 265 315 303 94 235 162 115 310 45 8
348 342 337 334 329 325 322 321 321 320 316 312 307 318 279 322 255 232 158 160 162 154 202 203 259 193 244 229 345 170 254 250 239 283 204 167 188 269 272 220 184 119 80 70 9
350 346 341 336 332 325 322 319 318 312 310 308 310 318 295 306 238 185 166 148 223 178 208 175 216 168 271 240 160 228 254 252 242 220 206 160 197 134 250 198 217 150 155 155 10
352 347 344 339 333 325 319 312 300 284 274 273 290 293 289 236 260 195 167 201 180 194 216 225 248 170 302 311 288 218 269 283 203 213 214 151 213 193 230 267 306 156 155 121 28
353 348 346 341 331 326 319 309 295 275 245 229 241 309 257 255 267 224 176 286 217 228 223 256 248 203 186 276 3 3 40 324 283 227 255 127 253 193 207 231 265 171 166 117 61
352 348 345 342 334 327 313 299 281 254 206 157 122 131 279 314 224 253 178 248 311 211 204 231 49 285 10 63 7 5 244 283 316 232 228 165 240 237 238 169 180 181 148 103 95
350 346 343 338 334 332 321 281 161 46 179 195 260 323 276 223 221 223 257 14 335 343 11 20 43 31 10 76 231 255 291 301 270 290 250 193 207 168 157 142 190 170 104 102 96
348 344 339 335 331 335 347 15 21 22 253 202 214 235 270 241 106 256 252 354 11 28 306 312 51 247 243 218 229 274 282 285 293 283 67 186 128 197 230 185 165 124 124 115 102
346 342 337 331 324 323 289 130 224 142 303 234 245 242 256 201 255 273 151 140 149 240 355 357 262 242 231 247 230 256 261 266 246 354 73 7 319 272 294 249 192 139 132 128 116
342 340 336 327 319 113 195 236 254 49 291 299 218 212 237 138 244 232 146 179 203 225 230 181 239 284 198 241 206 156 115 40 50 335 15 44 336 329 306 189 95 135 124 125 132
339 336 336 326 24 328 264 285 310 138 38 278 211 243 182 142 241 223 204 158 333 261 295 194 279 345 61 50 31 66 307 67 82 73 241 79 267 294 313 102 107 123 132 146 111
335 332 331 306 278 314 252 336 330 56 4 213 234 186 195 149 160 264 227 117 276 302 68 271 13 53 49 339 59 202 269 288 288 80 62 360 74 324 13 88 44 36 41 46 59
332 329 328 93 223 247 315 318 55 49 266 243 162 192 158 219 211 199 52 30 8 18 355 316 64 83 180 334 320 339 18 29 41 83 32 306 132 4 4 71 76 67 64 67 79
330 325 288 303 234 326 350 35 43 137 300 206 205 175 193 227 194 92 85 39 67 34 3 341 16 80 44 29 354 39 46 1 22 27 213 133 54 16 87 91 92 93 85 89 93
328 320 195 224 249 27 33 51 78 258 300 340 8 29 131 166 85 111 90 65 23 77 69 44 340 352 338 100 292 9 120 135 124 113 268 14 92 155 89 90 80 62 65 47 37
327 336 266 255 228 110 72 66 216 254 335 357 350 24 333 85 121 90 73 64 53 35 102 28 294 315 32 97 103 322 41 157 110 357 70 77 160 29 42 69 61 58 56 53 48
331 332 274 242 132 72 77 226 256 317 11 30 44 17 40 6 61 66 79 337 76 43 107 340 345 12 310 29 3 89 242 35 13 82 76 339 61 169 6 65 65 54 47 40 38
9 4 267 144 74 55 168 229 302 325 83 77 40 44 56 23 66 44 46 9 55 61 67 54 83 295 6 40 325 0 29 59 105 112 140 139 277 30 60 58 57 48 41 36 31
358 339 301 26 57 92 185 216 274 176 23 51 93 64 78 28 61 60 94 103 358 25 62 343 135 303 287 291 239 104 64 92 110 248 117 140 114 6 47 52 47 27 11 358 4
334 272 323 99 128 288 283 271 109 66 36 60 39 70 39 61 58 125 133 139 60 80 121 353 26 19 348 350 4 22 20 101 109 75 189 138 204 114 67 40 40 14 344 343 5
2 355 327 28 131 291 335 338 93 48 50 79 68 50 49 37 34 44 118 88 70 79 91 84 90 144 178 208 274 334 330 329 130 114 211 212 128 7 3 9 6 360 333 354 354
40 288 162 306 321 337 325 335 94 65 44 23 34 21 130 67 30 36 34 92 28 143 62 94 114 32 238 326 1 344 358 331 39 124 131 135 100 111 0 349 348 340 354 350 341
50 25 344 294 294 334 359 17 65 37 62 41 85 63 64 89 94 88 116 49 184 48 74 16 216 57 326 12 17 340 347 357 94 78 102 117 104 51 21 305 329 358 354 342 341
315 337 107 285 322 353 284 117 110 109 21 87 115 102 65 65 253 246 235 205 179 146 138 108 115 79 267 337 1 3 338 73 88 28 104 103 70 255 264 339 335 11 347 340 327